This is the latest recevied weather packets stored in our database for station/object IW2HNF-3. If no packets are shown the sender has not sent any weather packets the latest 10 day(s).
| Time | Temp. | Humidity | Pressure | Rain* | Wind** | Luminosity | Snow |
|---|---|---|---|---|---|---|---|
| 1788612071 | 31.11° C | 45% | 1016.2 hPa | 0 mm | - | - | - |
| 1788611447 | 31.11° C | 46% | 1016.2 hPa | 0 mm | - | - | - |
| 1788610870 | 31.11° C | 47% | 1016.3 hPa | 0 mm | - | - | - |
| 1788610247 | 31.11° C | 47% | 1016.4 hPa | 0 mm | - | - | - |
| 1788609671 | 31.11° C | 48% | 1016.5 hPa | 0 mm | - | - | - |
| 1788609047 | 30.56° C | 48% | 1016.5 hPa | 0 mm | - | - | - |
| 1788608471 | 30.56° C | 49% | 1016.5 hPa | 0 mm | - | - | - |
| 1788607846 | 30.56° C | 50% | 1016.6 hPa | 0 mm | - | - | - |
| 1788607271 | 30.56° C | 51% | 1016.7 hPa | 0 mm | - | - | - |
| 1788606647 | 30° C | 51% | 1016.6 hPa | 0 mm | - | - | - |
| 1788606079 | 30.56° C | 51% | 1016.7 hPa | 0 mm | - | - | - |
| 1788605447 | 30° C | 52% | 1016.7 hPa | 0 mm | - | - | - |
| 1788604871 | 29.44° C | 53% | 1016.7 hPa | 0 mm | - | - | - |
| 1788604247 | 28.89° C | 53% | 1016.7 hPa | 0 mm | - | - | - |
| 1788603671 | 28.89° C | 53% | 1016.7 hPa | 0 mm | - | - | - |
| 1788603049 | 28.33° C | 52% | 1016.7 hPa | 0 mm | - | - | - |
| 1788602472 | 28.33° C | 51% | 1016.9 hPa | 0 mm | - | - | - |
| 1788601847 | 28.33° C | 52% | 1016.9 hPa | 0 mm | - | - | - |
| 1788601271 | 27.78° C | 52% | 1016.9 hPa | 0 mm | - | - | - |
| 1788600647 | 27.78° C | 53% | 1016.8 hPa | 0 mm | - | - | - |
| 1788600071 | 27.22° C | 56% | 1016.8 hPa | 0 mm | - | - | - |
| 1788599447 | 27.22° C | 55% | 1016.8 hPa | 0 mm | - | - | - |
| 1788598871 | 27.22° C | 57% | 1016.7 hPa | 0 mm | - | - | - |
| 1788598247 | 26.67° C | 57% | 1016.7 hPa | 0 mm | - | - | - |
| 1788597672 | 26.67° C | 56% | 1016.7 hPa | 0 mm | - | - | - |
* Rain latest hour (hover to see other rain measurements)
** Current wind speed in m/s (hover to see current wind gust speed)